sat.trackr.live / text

‹ back to catalog

HAIYANG-2A

NORAD 37781 · 2011-043A

PAYLOAD ACTIVE UNKNOWN

§ Identity

Operator
Country
PRC
Launch date
2011-08-15
Launch site
TAISC
Launch vehicle
Mass (kg)
RCS (m²)
4.63

Purposes: earth_obs

External: N2YO · Heavens-Above · Gunter

§ Orbital elements

Epoch: 2026-05-25T04:24:11.382912Z

Period
104.73 min
Inclination
99.3404°
Eccentricity
0.0006889
Mean motion
13.74975927 rev/d
Perigee alt
976.7 km
Apogee alt
986.8 km
Semi-major
7,359.9 km
B*
2.8585e-4
RAAN
148.3610°
Arg perigee
132.2360°
Mean anomaly
227.9375°
Rev number
74,349

§ Raw data

HAIYANG-2A1 37781U 11043A   26145.18346508  .00000229  00000+0  28585-3 0  99912 37781  99.3404 148.3610 0006889 132.2360 227.9375 13.74975927743494

JSON: /api/v1/satellites/37781 · /tle

For live sub-satellite position, see the globe view (requires WebGL).

§ Visibility from observer

Set your observer location to see the next 7 days of passes ≥ 10°. The values pass through the URL so the page stays shareable.

No JS? Fill the form by hand. The geolocation button needs JavaScript.

§ Radio — SatNOGS DB

ModeDescriptionDownlinkUplink
FM S-band telemetry 2.228 GHz

1 transmitter · refreshed weekly from db.satnogs.org